Regional Weather Roundup
Issued by NWS

Home | Current Version | Previous Version | Text Only | Print | Product List | Glossary On
Versions: 1 2 3 4 5 6 7 8 9 10 11 12 13 14 15 16 17 18 19 20 21 22 23 24 25 26 27 28 29 30 31 32 33 34 35 36 37 38 39 40 41 42 43 44 45 46 47 48 49 50
000
ASUS44 KMEG 301510
RWRTN
TENNESSEE HOURLY STATE WEATHER ROUNDUP
NATIONAL WEATHER SERVICE MEMPHIS TN
1000 AM CDT SAT APR 30 2016

TNZ002-004-019-021-049-052-054-088>092-301600-
WEST TENNESSEE

CITY           SKY/WX    TMP DP  RH WIND       PRES   REMARKS
MEMPHIS INTL   LGT RAIN  66  62  87 S10       29.88R
NWS MEMPHIS      N/A     65 N/A N/A MISG        N/A
JACKSON        CLOUDY    65  63  93 S6        29.90S
DYERSBURG      CLOUDY    64  61  88 SW14G32     N/A
UNION CITY     PTSUNNY   64  64 100 S14       29.81S
LEXINGTON      CLOUDY    64  63  94 S5        29.92R
$$

TNZ008-025-027-028-033-062-065-066-301600-
NORTH MIDDLE TENNESSEE

CITY           SKY/WX    TMP DP  RH WIND       PRES   REMARKS
NASHVILLE      CLOUDY    65  62  90 E8        29.93F
CLARKSVILLE    LGT RAIN  63  61  93 SE7       29.92R
SMYRNA         CLOUDY    65  63  93 E5        29.95F
COOKEVILLE     PTSUNNY   63  61  94 N7        30.01R
CROSSVILLE     CLOUDY    69  55  60 CALM      30.00F
$$

TNZ061-075-076-078-094-096-097-301600-
SOUTH MIDDLE TENNESSEE

CITY           SKY/WX    TMP DP  RH WIND       PRES   REMARKS
FAYETTEVILLE   SUNNY     70  59  68 S7        29.95S
TULLAHOMA      MOSUNNY   68  61  77 CALM      29.96F
WINCHESTER     MOSUNNY   72  55  56 SE6       29.95F
MCMINNVILLE    PTSUNNY   63  61  94 NE5       29.97S
COLUMBIA       PTSUNNY  N/A N/A N/A S3        29.91S
SHELBYVILLE    PTSUNNY   66  63  88 E6        29.95S
$$

TNZ017-018-042-046-047-301600-
NORTHEAST TENNESSEE

CITY           SKY/WX    TMP DP  RH WIND       PRES   REMARKS
TRI CITIES     CLOUDY    72  54  53 CALM      30.02R
$$

TNZ012-013-036-069-073-074-301600-
CENTRAL EAST TENNESSEE

CITY           SKY/WX    TMP DP  RH WIND       PRES   REMARKS
KNOXVILLE      CLOUDY    69  56  62 N5        29.98S
OAK RIDGE      LGT RAIN  68  56  65 CALM      30.01R
GATLINBURG     SUNNY     70  54  56 CALM      29.98S
MORRISTOWN     MOSUNNY   70  55  60 CALM      29.99S
$$

TNZ083-085-099-301600-
SOUTHEAST TENNESSEE

CITY           SKY/WX    TMP DP  RH WIND       PRES   REMARKS
CHATTANOOGA    CLOUDY    70  59  68 CALM      29.98S
$$

SKY/WX REPORTED AS FAIR MEANS FEW OR NO CLOUDS BELOW
12 THOUSAND FEET.




USA.gov is the U.S. government's official web portal to all federal, state and local government web resources and services.